Overview Statistics Trail Chart Weather Telemetry Raw packets
 

This is the latest recevied weather packets stored in our database for station/object 4S6DRJ-13. If no packets are shown the sender has not sent any weather packets the latest 10 day(s).

<< 215 216 217 218 219 220 221 >>
Time Temp. Humidity Pressure Rain* Wind** Luminosity Snow
1788147917 30° C 76% 1010.2 hPa 0 mm 1.34 m/s, 312° 738 W/m² -
1788147856 30° C 76% 1010.1 hPa 0 mm 2.24 m/s, 308° 438 W/m² -
1788147795 30° C 77% 1010.2 hPa 0 mm 1.34 m/s, 121° 451 W/m² -
1788147734 30° C 76% 1010.2 hPa 0 mm 2.24 m/s, 315° 690 W/m² -
1788147674 30° C 76% 1010.3 hPa 0 mm 2.68 m/s, 327° 717 W/m² -
1788147612 30° C 75% 1010.3 hPa 0 mm 3.58 m/s, 339° 724 W/m² -
1788147551 30° C 76% 1010.2 hPa 0 mm 1.79 m/s, 329° 276 W/m² -
1788147490 30° C 76% 1010.3 hPa 0 mm 4.02 m/s, 318° 826 W/m² -
1788147429 30° C 75% 1010.2 hPa 0 mm 4.02 m/s, 325° 780 W/m² -
1788147368 29.44° C 77% 1010.4 hPa 0 mm 3.58 m/s, 291° 768 W/m² -
1788147307 29.44° C 77% 1010.2 hPa 0 mm 3.58 m/s, 306° 779 W/m² -
1788147246 29.44° C 77% 1010.3 hPa 0 mm 0.89 m/s, 150° 656 W/m² -
1788147184 29.44° C 77% 1010.2 hPa 0 mm 1.34 m/s, 342° 845 W/m² -
1788147123 29.44° C 77% 1010.3 hPa 0 mm 2.68 m/s, 239° 696 W/m² -
1788147070 29.44° C 78% 1010.2 hPa 0 mm 2.24 m/s, 317° 367 W/m² -
1788147001 29.44° C 78% 1010.4 hPa 0 mm 1.79 m/s, 47° 252 W/m² -
1788146940 29.44° C 77% 1010.2 hPa 0 mm 4.92 m/s, 311° 774 W/m² -
1788146879 29.44° C 77% 1010.3 hPa 0 mm 2.24 m/s, 249° 305 W/m² -
1788146818 29.44° C 78% 1010.3 hPa 0 mm 1.79 m/s, 307° 303 W/m² -
1788146757 29.44° C 77% 1010.3 hPa 0 mm 4.47 m/s, 300° 569 W/m² -
1788146696 29.44° C 77% 1010.4 hPa 0 mm 3.58 m/s, 311° 474 W/m² -
1788146636 29.44° C 78% 1010.6 hPa 0 mm 2.68 m/s, 343° 243 W/m² -
1788146574 29.44° C 78% 1010.3 hPa 0 mm 0.45 m/s, 60° 310 W/m² -
1788146513 29.44° C 78% 1010.4 hPa 0 mm 2.68 m/s, 322° 265 W/m² -
1788146453 29.44° C 78% 1010.4 hPa 0 mm 4.02 m/s, 295° 703 W/m² -

* Rain latest hour (hover to see other rain measurements)
** Current wind speed in m/s (hover to see current wind gust speed)